Location: Oracle State Park
(32.6095°N, 110.7330°W)
Time: 07:55:00
(UTC-07:00)

AO-85 - Visible Passes

Search period start: 23 May 2019 00:00
Search period end: 02 June 2019 00:00
Orbit: 499 x 785 km, 64.8° (Epoch: 15 May)

Date Brightness Start Highest point End Pass type
(mag) Time Alt. Az. Time Alt. Az. Time Alt. Az.
23 May ? 00:26:30 12° ENE 00:26:30 12° ENE 00:27:03 10° ENE visible
23 May ? 02:04:05 36° NNW 02:04:05 36° NNW 02:08:02 10° NNE visible
24 May ? 00:50:20 25° NE 00:50:20 25° NE 00:52:33 10° NE visible
24 May ? 02:27:55 19° NW 02:28:02 19° NW 02:31:44 10° N visible
25 May ? 01:14:06 34° N 01:14:06 34° N 01:17:14 10° NNE visible
26 May ? 00:00:14 16° NE 00:00:14 16° NE 00:01:18 10° NE visible
26 May ? 01:37:49 25° NW 01:37:49 25° NW 01:41:19 10° N visible
27 May ? 00:23:54 28° NNE 00:23:54 28° NNE 00:26:19 10° NNE visible
27 May ? 02:01:28 12° NW 02:02:01 12° NW 02:04:13 10° NNW visible
28 May ? 00:47:30 30° NNW 00:47:30 30° NNW 00:50:41 10° NNE visible
28 May ? 23:33:27 21° NE 23:33:27 21° NE 23:35:14 10° NE visible
29 May ? 01:11:00 18° NW 01:11:00 18° NW 01:14:19 10° N visible
29 May ? 23:56:52 33° N 23:56:52 33° N 23:59:53 10° NNE visible
30 May ? 22:42:38 17° NE 22:42:38 17° NE 22:43:59 10° NE visible
31 May ? 00:20:11 25° NW 00:20:11 25° NW 00:23:55 10° N visible
31 May ? 23:05:50 36° NNE 23:05:50 36° NNE 23:08:57 10° NNE visible
01 Jun ? 00:43:23 11° WNW 00:44:42 12° NW 00:46:38 10° NNW visible
01 Jun ? 21:51:20 15° ENE 21:51:20 15° ENE 21:52:31 10° NE visible
01 Jun ? 23:28:51 36° NW 23:28:51 36° NW 23:33:16 10° N visible
